STARLINK-1171 (45062 NORAD) Tracking and Keplerian Element Data

This shows tracking and keplerian element data for the satellite.

Feedback or suggestion? Click here.




ElementValue
Catalog45062
NameSTARLINK-1171
Epoch Orbit324
Epoch Day47.91667824
Epoch Year2020
RAAN145.0871
Inclination52.9977
Eccentricity0.0001808
Argument of Perigee54.966
Mean Anonmoly241.8493
Mean Motion15.61619281
Decay Rate0.01142234
L11 45062U 20006U 20047.91667824 .01142234 00000-0 11765-1 0 9999
L22 45062 52.9977 145.0871 0001808 54.9660 241.8493 15.61619281 3241

Live tracking and technical data element details for STARLINK-1171 (NORAD 45062). STARLINK-1171 can be tracked NOW for your location showing map with azimuth and elevation plus other details from your city location.

Track the satellite on the map from your city or location and see movement details for azimuth, elevation, latitude, longitude, range, height, and movement on the map or in text.







IsCatalogInMostPopularTable: catalog: 45062, numindb: 1
Update: records affected: 1



GetName: 45062 STARLINK-1171

Hit Count: updated at: Tue, 18 Feb 2020 01:40:29 GMT